Flag for U.S.A. Weather past 2 weeks in Unalaska, Alaska, U.S.A.

Now
51 °F

Light rain. Overcast.


Feels Like: 45 °F
Forecast: 48 / 51 °F
Wind: 22 mph from Southeast

Location: Dutch Harbor

Current Time: Jul 3, 2015 at 12:59:10 AM

Latest Report: Jul 2, 2015 at 11:56 PM


Visibility: 6 mi

Pressure: 29.89 "Hg

Humidity: 80%

Dew point: 45 °F

Location of UnalaskaLocation

Historic Weather in Unalaska — Graph

°F

Unalaska temperature yesterday

Maximum temperature yesterday: 52 °F (at 7:59 AM)
Minimum temperature yesterday: 49 °F (at 2:56 AM)
Average temperature yesterday: 51 °F

Past Weeks' High & Low Weather Summary

 TemperatureHumidityPressure
High59 °F (Jun 30, 7:56 PM)97% (Jun 19, 4:56 AM)30.17 "Hg (Jun 19, 4:56 AM)
Low44 °F (Jun 19, 7:56 AM)64% (Jun 22, 3:56 PM)29.85 "Hg (Jun 20, 10:56 PM)
Average49 °F82%30.01 "Hg
* Reported Jun 17 11:56 PM — Jul 2 11:56 PM, Unalaska, Weather by CustomWeather, © 2015

Note: Actual official high and low records may vary slightly from our data, if they occured in-between our weather recording intervals... More about our weather records

Advertising

Unalaska weather history for previous 24 hours

 ConditionsComfort  
Time TempWeatherWind HumidityBarometerVisibility
11:56 PM
Thu, Jul 2
51 °FLight rain. Overcast.22 mph80%29.89 "Hg6 mi
10:56 PM51 °FLight rain. Overcast.21 mph80%29.89 "Hg7 mi
9:56 PM51 °FLight rain. Overcast.14 mph80%29.90 "Hg10 mi
8:56 PM51 °FLight rain. Fog.18 mph80%29.90 "Hg10 mi
7:56 PM51 °FLight rain. Fog.18 mph80%29.91 "Hg6 mi
6:56 PM51 °FLight rain. Overcast.12 mph77%29.90 "Hg8 mi
5:56 PM50 °FLight rain. Overcast.20 mph80%29.92 "Hg8 mi
4:59 PM52 °FLight rain. Overcast.17 mph77%29.91 "Hg9 mi
3:56 PM51 °FLight rain. Overcast.15 mph80%29.94 "Hg10 mi
2:56 PM51 °FOvercast.16 mph77%29.96 "Hg10 mi
1:56 PM50 °FLight rain. Overcast.14 mph80%29.97 "Hg10 mi
12:56 PM51 °FOvercast.24 mph74%29.97 "Hg10 mi
11:56 AM51 °FOvercast.20 mph74%29.98 "Hg10 mi
10:56 AM51 °FOvercast.17 mph77%29.99 "Hg10 mi
9:58 AM52 °FOvercast.12 mph72%29.98 "Hg10 mi
8:56 AM51 °FMostly cloudy.20 mph74%29.99 "Hg10 mi
7:59 AM52 °FMore clouds than sun.14 mph72%29.99 "Hg10 mi
6:56 AM50 °FMostly cloudy.17 mph77%30.01 "Hg10 mi
5:56 AM49 °FOvercast.13 mph80%30.03 "Hg10 mi
4:56 AM49 °FOvercast.15 mph84%30.04 "Hg10 mi
3:56 AM49 °FOvercast.16 mph84%30.05 "Hg10 mi
2:56 AM49 °FOvercast.16 mph84%30.06 "Hg10 mi
1:56 AM50 °FMostly cloudy.21 mph80%30.07 "Hg10 mi
12:56 AM50 °FMostly cloudy.14 mph80%30.09 "Hg10 mi
Weather by CustomWeather, © 2015

See weather overviewHow to use our weather pages